Lapse_Rate
7.3 7.6 7.9 9.5 9.5 9.6 9.3 9.5 8.3 9.6 9.0 9.0 9.6 9.6 9.3 8.9 8.4 8.4 8.2 7.4 7.0 6.8 6.8 6.6 6.2 6.1 6.0 6.1 6.4 6.2 6.3 6.3 6.1 5.9 5.8 5.8 5.8 5.0 4.7 4.7 5.5 5.8 5.5 5.6
7.8 7.6 8.3 9.5 9.5 9.6 9.5 9.5 9.6 9.6 9.0 9.1 9.6 9.5 9.6 8.9 8.6 8.6 8.5 8.0 7.4 7.1 6.9 6.7 6.4 6.3 6.0 5.9 6.3 6.2 6.0 5.9 5.8 5.8 5.6 5.6 4.9 4.8 4.6 4.8 5.7 5.8 5.8 5.7
8.1 8.7 8.3 9.4 9.6 9.5 9.6 9.5 9.6 9.4 9.6 9.3 9.5 9.6 9.4 9.4 8.7 8.8 8.6 8.4 8.0 7.3 7.2 7.1 6.8 6.4 6.1 6.0 6.4 6.2 6.0 5.7 5.6 5.6 5.6 5.5 5.4 5.3 5.5 5.8 5.8 5.9 5.8 6.0
8.1 8.4 9.2 8.7 9.6 9.6 9.6 9.5 9.6 9.5 9.4 9.7 9.7 9.7 9.7 9.5 9.2 8.9 8.8 8.7 8.4 7.8 7.5 7.4 7.2 6.7 6.5 6.0 6.6 6.3 6.1 5.9 5.5 5.3 5.3 5.4 5.4 5.4 5.6 5.0 5.2 5.8 5.8 6.0
8.2 8.3 8.4 8.3 9.0 9.0 9.6 9.6 9.5 9.6 9.5 9.5 9.6 9.7 9.7 9.7 9.7 9.6 9.2 8.9 8.6 8.3 7.9 7.5 7.4 7.1 6.7 6.3 6.3 6.7 6.5 6.1 5.7 5.7 5.8 5.9 5.7 5.1 5.3 5.1 5.4 5.9 6.1 6.2
8.4 8.3 8.2 8.2 8.3 8.7 9.6 9.6 9.1 9.4 9.6 9.7 9.7 9.6 9.7 9.8 9.8 9.7 9.6 9.3 8.9 8.5 8.1 7.6 7.4 7.3 7.0 6.6 6.4 6.9 6.9 6.6 6.1 6.1 5.9 6.0 5.9 5.9 6.1 5.5 5.9 5.9 6.0 6.3
8.2 8.1 8.1 8.2 8.5 8.6 9.3 9.6 9.7 9.8 9.8 9.9 9.7 9.7 9.6 9.7 9.7 9.5 9.1 9.0 8.7 8.5 8.2 7.9 7.6 7.4 7.3 7.0 6.4 7.2 7.1 6.9 6.6 6.4 6.1 6.1 5.8 6.0 5.9 5.9 5.8 6.0 6.2 6.6
9.0 8.9 8.4 8.4 8.4 9.5 8.5 9.5 9.7 9.5 9.9 9.9 9.8 9.8 9.7 9.7 9.7 9.0 8.8 8.8 8.6 8.5 8.3 8.0 7.6 7.5 7.4 7.2 7.0 7.4 7.5 7.1 6.8 6.5 6.4 6.2 6.0 6.0 6.2 6.4 6.6 6.5 6.4 6.7
9.7 9.6 9.3 8.7 8.4 9.0 9.6 9.0 9.6 9.7 9.7 9.8 9.8 9.6 9.7 9.6 9.4 9.1 8.8 8.6 8.5 8.4 8.3 8.1 7.9 7.8 7.5 7.3 7.7 7.9 7.6 7.3 7.1 7.0 6.6 6.6 6.7 6.7 6.6 6.7 6.8 6.7 6.7 6.7
9.7 9.8 9.6 8.8 8.7 8.8 9.4 9.7 9.7 9.7 9.8 9.5 9.8 9.7 9.6 9.4 9.0 9.4 9.3 8.8 8.6 8.3 8.3 8.3 8.3 8.0 7.7 7.4 7.6 8.2 7.9 7.4 7.4 7.4 7.2 7.0 7.0 7.1 7.0 6.6 6.6 6.6 6.5 6.4
9.6 9.7 9.6 9.4 8.6 9.3 9.1 9.2 9.7 9.7 9.7 9.9 9.8 9.8 9.3 8.9 9.0 9.1 9.0 9.1 9.0 8.8 8.5 8.4 8.2 8.0 7.9 7.6 7.3 8.1 8.0 7.6 7.8 7.5 7.4 7.2 7.3 7.1 6.9 6.5 6.5 6.7 6.5 6.4
9.3 9.6 9.6 9.5 9.3 9.6 9.6 9.7 9.7 9.7 9.7 9.7 9.6 9.6 9.6 8.8 9.0 9.0 8.9 8.9 8.8 8.8 8.8 8.6 8.4 8.0 8.3 7.7 7.5 7.3 7.6 7.6 7.6 7.7 7.6 7.2 7.1 6.9 6.8 6.7 6.5 6.4 6.5 6.4
9.2 9.6 9.7 9.7 9.6 9.4 9.6 9.7 9.7 9.6 9.7 9.7 9.8 9.5 9.2 8.8 8.8 8.7 8.8 8.6 9.0 8.8 8.7 8.4 8.8 8.7 8.5 8.3 8.2 8.0 7.8 7.7 7.9 7.8 7.8 7.5 7.2 7.0 6.8 6.7 6.6 6.7 6.6 6.4
8.9 9.5 9.3 9.7 9.7 9.6 9.6 9.7 9.7 9.6 9.7 9.8 9.7 9.5 9.2 9.0 8.7 8.4 8.5 8.5 8.4 8.6 8.7 8.6 8.6 8.7 8.5 8.4 8.2 8.0 7.9 7.8 7.9 7.9 8.0 7.9 7.7 7.5 7.3 7.2 6.9 6.8 6.8 6.7
8.8 9.6 9.9 9.8 9.6 9.7 9.6 9.7 9.7 9.6 9.7 9.6 9.6 9.6 9.3 8.8 8.6 8.4 8.8 8.5 8.3 8.4 8.4 8.8 8.6 8.9 8.8 8.3 8.3 8.1 7.9 7.5 7.8 8.1 8.0 8.2 8.1 7.6 7.3 7.2 7.1 6.9 6.9 6.9
9.1 9.8 9.7 9.7 9.7 9.7 9.7 9.7 9.7 9.7 9.7 9.7 9.3 9.2 8.6 8.4 8.2 8.2 8.2 8.1 8.5 8.4 8.6 8.6 8.7 8.7 8.7 8.8 8.4 8.4 8.1 8.1 8.0 8.1 8.2 8.3 8.2 7.8 8.0 7.6 7.2 7.0 6.6 6.8
9.6 9.6 9.7 9.7 9.7 9.7 9.7 9.6 9.7 9.7 9.7 9.6 9.7 8.8 8.4 8.5 8.4 8.1 7.9 7.9 8.4 8.2 8.0 8.0 8.2 8.2 8.5 8.7 8.7 8.5 8.2 8.1 8.1 8.1 8.2 8.0 8.1 8.5 8.3 7.7 7.6 7.4 7.0 6.5
9.7 9.7 9.6 9.4 9.4 9.8 9.5 8.9 9.6 9.6 9.6 9.6 9.3 8.3 9.0 8.6 8.2 8.1 8.0 7.8 8.3 8.2 8.0 8.1 8.2 8.1 8.1 8.1 8.3 8.6 8.5 8.3 8.2 8.1 7.8 7.9 8.0 7.7 7.6 8.1 7.8 7.6 7.3 7.0
9.6 9.6 9.7 9.8 9.6 9.7 9.3 9.0 9.1 9.3 9.5 9.5 9.5 9.0 8.6 8.5 8.8 8.1 7.6 8.0 7.9 7.7 7.6 7.7 7.8 7.9 8.0 8.0 8.0 8.4 8.7 8.7 8.3 8.0 7.9 6.9 7.2 7.7 7.3 8.1 8.2 7.8 7.5 7.3
9.6 9.6 9.5 9.5 9.6 9.1 8.5 9.7 9.6 9.3 9.5 9.4 9.3 9.4 9.4 9.0 9.1 8.6 7.8 7.5 7.7 7.5 7.5 7.3 6.5 6.5 7.2 7.7 7.8 7.8 8.0 8.0 8.1 8.0 7.9 7.8 7.9 8.0 7.7 7.7 7.5 7.6 7.5 7.4
9.5 9.4 9.5 9.5 9.4 9.6 9.2 9.2 9.0 9.1 9.3 9.1 9.1 9.3 9.3 8.7 8.3 8.4 8.0 7.6 7.5 7.3 7.3 7.2 6.3 6.0 6.5 7.0 7.0 6.9 7.0 7.2 7.0 7.1 7.2 7.5 7.7 7.7 7.8 7.9 7.8 7.7 7.2 7.1
9.3 9.2 9.4 9.4 9.4 9.1 8.7 9.2 9.1 9.1 8.9 8.7 8.7 8.8 8.5 8.0 7.8 7.7 7.5 7.4 7.3 7.3 7.3 7.2 6.1 5.6 5.5 5.4 6.2 6.4 6.3 6.2 6.5 6.7 6.7 6.8 7.0 7.2 7.3 7.1 7.2 7.1 6.9 4.9
8.1 8.7 8.9 8.5 7.5 8.0 7.9 8.1 8.0 8.4 8.2 8.6 8.1 8.4 8.2 7.8 7.2 6.9 6.8 6.8 6.7 6.7 6.6 6.3 6.0 5.6 5.4 5.2 5.6 5.8 5.9 6.0 6.1 6.3 6.5 6.6 6.6 6.9 7.3 7.1 7.3 7.1 6.8 5.9
7.5 7.3 7.8 8.4 8.7 7.4 7.6 7.6 7.9 7.9 7.9 7.2 7.4 7.3 7.2 7.2 6.9 6.7 6.5 6.4 6.2 6.1 5.9 5.8 5.5 5.4 5.4 5.5 5.7 5.8 5.8 6.0 6.1 6.3 6.5 6.5 6.7 6.8 6.9 7.2 7.2 7.1 7.2 6.6
7.2 7.1 7.4 7.4 7.6 7.2 7.1 6.9 6.7 7.1 7.4 6.9 6.9 6.9 6.9 6.9 6.9 6.7 6.5 6.2 5.9 5.6 5.8 5.8 5.9 5.9 5.8 5.7 5.7 5.8 5.7 5.8 6.0 6.2 6.3 6.6 6.7 6.7 6.7 6.8 6.7 6.7 6.7 7.0
7.4 7.3 7.4 8.0 6.6 6.7 6.7 6.3 6.7 6.5 6.6 6.5 6.6 6.7 6.7 6.7 6.7 6.5 6.3 6.0 5.7 5.6 6.1 6.1 6.2 6.1 6.1 5.9 6.0 5.8 5.8 5.7 5.9 6.1 6.2 6.3 6.5 6.5 6.5 6.4 6.5 6.6 6.4 6.5
Wind_Speed
19 16 19 21 19 19 11 8 16 11 6 11 7 6 15 11 13 14 15 16 17 17 17 18 17 17 16 16 14 14 13 11 10 9 9 8 8 7 6 5 7 1 5 1
18 21 21 18 20 16 8 15 8 7 7 8 9 11 8 14 12 13 14 17 16 18 18 19 20 18 17 16 16 15 14 12 11 9 8 8 7 5 4 4 5 4 1 5
21 19 18 21 19 16 14 18 13 6 3 13 9 15 3 13 14 12 13 14 18 18 19 21 22 20 19 18 17 16 15 14 12 11 8 6 3 4 4 5 5 6 6 4
13 16 15 20 18 12 19 16 15 3 7 11 4 8 9 16 11 16 14 15 16 19 19 19 21 21 20 19 18 17 16 14 13 12 10 8 8 8 7 6 5 5 7 5
16 17 15 18 14 17 18 17 8 7 13 15 15 8 5 7 5 8 12 15 15 18 20 19 21 21 21 19 18 17 16 15 14 14 13 10 10 8 6 3 8 2 5 6
17 10 10 15 18 18 18 17 9 12 14 14 14 12 3 1 4 5 6 7 10 16 20 21 19 20 18 18 17 17 16 15 15 14 15 12 9 10 3 5 4 4 3 2
16 11 13 14 15 16 17 15 10 13 14 11 15 3 7 11 6 9 4 1 4 13 19 20 20 17 18 19 18 16 15 15 15 16 15 15 12 10 8 4 6 5 5 4
13 14 15 13 17 11 13 17 13 11 12 12 5 3 3 6 3 8 4 4 6 11 15 18 20 17 17 17 17 16 16 15 17 16 15 12 13 10 10 10 4 7 7 7
10 14 19 12 16 17 16 15 21 20 18 7 6 10 6 10 9 7 9 9 10 9 11 15 19 18 18 17 17 17 16 15 16 17 13 13 12 13 11 7 8 8 8 6
5 10 9 10 11 13 14 8 13 6 6 4 5 2 10 12 5 6 11 11 11 10 9 12 14 17 17 18 18 18 17 17 17 17 15 13 14 12 9 9 9 9 8 7
12 13 10 11 12 15 9 10 8 10 4 5 7 9 15 10 6 8 6 6 10 13 10 10 9 9 14 15 18 18 17 18 17 17 16 14 14 13 12 11 10 9 8 9
16 8 9 14 14 17 16 12 13 6 11 6 10 10 13 12 9 7 9 8 8 2 4 4 6 8 10 13 15 17 17 18 17 16 14 16 13 12 14 12 12 11 10 11
13 8 10 12 10 10 11 9 13 16 7 6 9 9 13 12 11 10 9 9 6 4 5 5 4 5 7 10 10 12 15 15 17 15 16 15 14 13 12 12 12 11 10 11
8 18 13 9 13 16 16 7 10 14 7 9 7 17 12 11 12 10 9 9 9 7 5 5 2 6 6 7 9 10 11 13 12 14 16 15 15 14 13 12 12 12 11 10
12 15 6 9 7 1 4 9 9 13 12 7 8 15 14 11 11 10 10 8 9 8 9 8 8 3 4 8 9 10 11 10 12 12 13 13 13 11 11 11 12 11 11 10
14 7 3 4 1 5 8 12 6 11 5 5 13 17 16 14 10 10 10 10 10 8 8 7 7 6 4 6 9 10 11 11 10 10 11 11 13 14 13 13 12 12 13 9
15 7 6 9 5 3 12 10 11 9 9 13 8 19 16 12 11 9 7 8 7 6 6 5 6 7 6 1 7 10 11 9 7 4 6 7 6 10 10 13 13 14 13 13
14 12 8 9 9 9 11 6 7 3 9 8 8 8 14 11 11 8 6 7 6 5 5 5 6 7 8 8 2 7 8 8 7 9 7 3 7 9 11 13 13 14 12 13
7 11 6 4 9 5 11 10 8 8 8 9 7 8 7 4 5 12 9 7 6 5 4 5 6 8 6 4 4 4 5 6 7 7 8 20 13 10 14 14 14 12 13 13
11 11 8 8 12 7 21 14 7 5 7 4 8 7 4 3 7 10 8 7 6 4 3 5 7 7 6 7 4 4 5 6 8 11 14 12 10 12 14 14 15 14 14 14
10 9 11 10 10 5 11 8 5 5 3 6 7 6 5 3 7 7 5 4 5 3 5 7 6 6 1 7 8 8 7 7 5 10 12 13 14 13 12 14 13 15 15 15
6 9 11 12 10 6 11 4 7 6 4 6 2 1 1 3 3 3 3 3 3 6 8 9 6 6 7 1 5 7 8 7 6 4 6 11 13 12 12 16 14 11 10 10
8 10 9 6 4 2 5 4 7 6 1 1 1 4 4 5 4 4 1 2 5 7 7 9 8 7 9 4 5 9 8 8 10 8 6 9 12 13 13 15 16 11 11 8
5 3 7 10 7 5 6 1 1 1 3 3 5 5 4 4 2 4 4 4 6 7 7 9 9 10 11 9 5 8 8 8 8 10 6 6 9 10 13 11 12 12 13 14
6 4 4 6 7 2 2 1 2 1 3 4 2 4 5 5 6 6 5 5 6 7 8 9 10 10 10 10 7 8 8 7 9 9 7 7 6 10 10 10 10 11 11 9
5 6 7 6 9 7 6 4 3 5 4 5 7 7 8 9 9 8 8 8 7 7 9 10 11 13 13 11 8 6 6 7 7 6 4 5 6 8 7 8 5 11 4 5
Wind_Direction
204 220 226 228 228 273 289 297 282 122 86 306 332 312 151 178 195 196 189 187 193 196 189 181 188 180 173 166 171 181 189 178 184 194 198 209 216 213 237 251 88 260 260 189
213 228 229 234 249 236 243 272 247 174 121 268 306 300 170 164 201 212 203 186 199 192 196 194 190 189 189 181 177 181 191 183 199 198 211 218 220 217 221 221 159 231 151 223
230 215 230 245 235 246 237 248 267 334 88 279 256 264 140 163 183 210 211 209 189 199 197 192 194 197 191 188 188 187 189 186 199 224 202 207 256 270 210 238 221 207 221 222
232 252 244 223 243 230 240 232 271 279 268 279 30 299 256 149 198 190 197 206 204 191 197 197 194 196 194 192 190 191 191 192 197 207 209 204 213 223 220 206 186 162 197 222
223 225 229 253 226 236 244 260 296 264 254 263 244 254 269 210 236 135 184 191 209 194 196 201 193 188 198 191 190 189 190 194 201 198 228 195 223 232 238 217 106 212 174 216
247 184 252 237 235 237 246 240 251 262 254 263 268 237 211 105 36 14 135 177 207 196 193 191 200 182 194 187 188 187 186 189 196 200 205 232 210 243 281 188 137 181 161 179
222 208 229 250 231 224 232 231 238 232 234 241 250 122 317 330 341 49 334 144 186 190 189 188 195 190 183 186 189 186 181 185 191 201 205 210 218 220 235 198 198 178 188 208
199 208 216 193 242 198 223 236 234 229 253 264 51 194 347 42 293 83 122 118 141 174 181 188 184 198 182 189 188 193 180 188 191 197 204 201 206 211 216 197 192 195 204 203
191 241 170 205 214 240 196 223 241 262 280 262 312 79 172 82 50 109 109 122 128 148 164 186 185 192 189 188 192 195 193 193 197 194 194 198 200 219 205 201 190 204 208 192
282 203 160 180 211 233 273 220 222 239 279 322 124 233 105 84 62 110 132 124 127 139 158 174 190 194 195 189 194 196 192 192 199 197 192 197 200 204 209 197 195 219 188 193
272 246 153 161 208 196 197 236 250 280 340 311 245 101 103 113 85 84 103 126 139 149 170 162 178 200 195 203 198 196 193 193 198 200 189 196 200 200 204 204 198 217 190 189
241 279 163 192 193 231 208 217 225 215 207 228 314 105 103 104 102 83 90 61 67 46 136 160 172 180 213 201 210 198 197 200 204 198 186 195 196 197 196 207 198 200 188 192
223 244 143 158 174 209 238 229 252 237 252 106 281 111 128 113 93 70 75 102 96 119 137 167 157 169 199 203 212 214 196 208 202 202 196 194 195 196 198 193 198 192 186 190
304 272 66 253 180 163 211 196 258 286 214 179 186 133 126 112 110 100 87 87 92 84 52 51 189 158 213 212 201 216 203 210 210 198 202 191 189 189 193 184 180 188 170 179
246 268 110 50 76 41 324 185 200 267 279 52 22 117 113 105 99 95 97 91 92 77 60 46 27 28 227 214 202 217 215 216 204 206 200 193 180 182 187 185 176 179 165 172
239 278 253 169 208 264 207 245 251 229 273 276 185 108 120 121 121 110 109 106 98 82 61 36 18 17 354 225 214 221 223 212 216 212 207 197 180 183 182 170 179 170 171 169
231 228 204 246 140 259 247 195 216 205 207 244 232 126 134 140 134 125 119 106 86 66 54 19 339 338 14 46 216 225 222 217 216 203 242 255 233 197 200 180 171 168 160 159
218 237 211 106 257 230 94 14 30 268 195 270 139 101 103 123 132 125 109 104 88 63 32 355 323 325 346 356 317 228 228 211 175 165 83 330 244 203 198 191 178 164 168 167
244 231 232 232 226 178 165 168 206 217 253 212 263 105 125 137 141 161 118 108 89 66 24 349 323 329 328 323 312 283 247 214 174 197 175 201 210 197 212 197 184 170 167 167
256 256 262 213 278 176 260 148 134 3 261 196 201 151 158 163 249 90 107 115 104 77 17 347 354 318 343 320 318 293 273 210 220 217 200 206 216 220 195 189 181 170 170 174
234 257 245 244 230 270 35 110 129 213 16 57 171 196 173 242 67 106 114 81 65 42 350 339 2 5 36 317 315 303 294 283 248 212 210 201 201 203 188 193 180 174 179 165
249 210 237 253 265 263 350 182 239 55 42 333 274 40 175 123 130 95 83 23 346 342 341 346 342 346 321 239 281 290 299 311 295 267 264 215 203 181 187 177 163 169 153 157
252 297 303 341 63 111 344 35 26 354 35 294 153 165 174 193 175 147 220 296 312 326 331 324 327 322 315 8 342 308 309 304 300 277 239 193 175 173 167 178 165 162 157 169
196 315 270 282 287 27 338 61 348 22 317 211 204 185 192 209 176 248 263 292 327 322 320 325 327 325 328 326 309 287 293 293 278 268 229 209 175 184 180 179 180 173 175 188
43 166 228 263 248 219 146 39 42 239 257 240 208 234 223 250 257 263 277 294 306 325 323 328 320 313 310 299 292 293 297 296 269 262 204 181 181 184 184 191 191 187 196 192
190 227 235 45 39 357 86 60 335 299 266 270 278 257 252 261 276 290 292 304 326 320 322 306 307 304 307 304 294 288 282 275 264 243 184 186 183 189 192 191 164 43 343 197